Time,TemperatureF,DewpointF,PressureIn,WindDirection,WindDirectionDegrees,WindSpeedMPH,WindSpeedGustMPH,Humidity,HourlyPrecipIn,Conditions,Clouds,dailyrainin,SolarRadiationWatts/m^2,SoftwareType,DateUTC
2013-01-12 00:00:00,52.0,50.9,30.06,WSW,242,0.0,0.0,96,0.00,,,0.22,0.00,VWS V14.01,2013-01-12 05:00:00,
2013-01-12 00:02:00,52.0,50.9,30.06,WSW,242,0.0,0.0,96,0.00,,,0.22,0.00,VWS V14.01,2013-01-12 05:02:00,
2013-01-12 00:03:00,52.0,50.9,30.06,WSW,242,0.0,1.0,96,0.00,,,0.00,0.00,VWS V14.01,2013-01-12 05:03:00,
2013-01-12 00:08:00,52.0,50.9,30.06,WSW,242,0.0,2.0,96,0.00,,,0.00,0.00,VWS V14.01,2013-01-12 05:08:00,
2013-01-12 00:13:00,52.0,50.9,30.06,WSW,242,0.0,2.0,96,0.00,,,0.00,0.00,VWS V14.01,2013-01-12 05:13:00,
2013-01-12 00:18:00,52.0,50.9,30.06,WSW,242,1.0,2.0,96,0.00,,,0.00,0.00,VWS V14.01,2013-01-12 05:18:00,
2013-01-12 00:23:00,52.0,50.9,30.06,WSW,245,3.0,3.0,96,0.00,,,0.00,0.00,VWS V14.01,2013-01-12 05:23:00,
2013-01-12 00:28:00,51.9,50.8,30.06,WNW,283,4.0,6.0,96,0.00,,,0.00,0.00,VWS V14.01,2013-01-12 05:28:00,
2013-01-12 00:33:00,51.9,50.8,30.06,WNW,290,2.0,4.0,96,0.00,,,0.00,0.00,VWS V14.01,2013-01-12 05:33:00,
2013-01-12 00:38:00,51.9,50.8,30.06,WNW,290,0.0,0.0,96,0.00,,,0.00,0.00,VWS V14.01,2013-01-12 05:38:00,
2013-01-12 00:43:00,51.9,50.8,30.06,WNW,290,0.0,0.0,96,0.00,,,0.00,0.00,VWS V14.01,2013-01-12 05:43:00,
2013-01-12 00:48:00,51.9,50.8,30.06,WNW,290,0.0,0.0,96,0.00,,,0.00,0.00,VWS V14.01,2013-01-12 05:48:00,
2013-01-12 00:53:00,51.9,50.8,30.06,WNW,290,0.0,0.0,96,0.00,,,0.00,0.00,VWS V14.01,2013-01-12 05:53:00,
2013-01-12 00:58:00,51.9,50.8,30.06,WSW,245,0.0,0.0,96,0.00,,,0.00,0.00,VWS V14.01,2013-01-12 05:58:00,
2013-01-12 01:03:00,52.0,50.9,30.05,WSW,245,0.0,0.0,96,0.00,,,0.00,0.00,VWS V14.01,2013-01-12 06:03:00,
2013-01-12 01:08:00,52.0,50.9,30.05,WSW,245,0.0,0.0,96,0.00,,,0.00,0.00,VWS V14.01,2013-01-12 06:08:00,
2013-01-12 01:13:00,52.0,50.9,30.05,WSW,245,0.0,0.0,96,0.00,,,0.00,0.00,VWS V14.01,2013-01-12 06:13:00,
2013-01-12 01:18:00,52.0,50.9,30.05,WSW,245,0.0,0.0,96,0.00,,,0.00,0.00,VWS V14.01,2013-01-12 06:18:00,
2013-01-12 01:23:00,52.0,50.9,30.05,WSW,245,0.0,0.0,96,0.00,,,0.00,0.00,VWS V14.01,2013-01-12 06:23:00,
2013-01-12 01:28:00,52.0,50.9,30.05,WSW,245,0.0,0.0,96,0.00,,,0.00,0.00,VWS V14.01,2013-01-12 06:28:00,
2013-01-12 01:33:00,52.2,51.1,30.05,WSW,245,0.0,0.0,96,0.00,,,0.00,0.00,VWS V14.01,2013-01-12 06:33:00,
2013-01-12 01:38:00,52.2,51.1,30.05,WSW,245,0.0,2.0,96,0.00,,,0.00,0.00,VWS V14.01,2013-01-12 06:38:00,
2013-01-12 01:43:00,52.2,51.1,30.05,WSW,245,0.0,0.0,96,0.00,,,0.00,0.00,VWS V14.01,2013-01-12 06:43:00,
2013-01-12 01:48:00,52.2,51.1,30.05,WSW,245,1.0,2.0,96,0.00,,,0.00,0.00,VWS V14.01,2013-01-12 06:48:00,
2013-01-12 01:53:00,52.2,51.1,30.05,WSW,245,0.0,0.0,96,0.00,,,0.00,0.00,VWS V14.01,2013-01-12 06:53:00,
2013-01-12 01:58:00,52.0,50.9,30.05,WSW,245,0.0,0.0,96,0.00,,,0.00,0.00,VWS V14.01,2013-01-12 06:58:00,
2013-01-12 02:03:00,52.0,50.9,30.05,WSW,245,3.0,3.0,96,0.00,,,0.00,0.00,VWS V14.01,2013-01-12 07:03:00,
2013-01-12 02:08:00,51.9,50.8,30.05,WSW,245,0.0,0.0,96,0.00,,,0.00,0.00,VWS V14.01,2013-01-12 07:08:00,
2013-01-12 02:13:00,51.9,50.8,30.05,WSW,245,0.0,0.0,96,0.00,,,0.00,0.00,VWS V14.01,2013-01-12 07:13:00,
2013-01-12 02:18:00,51.7,50.6,30.05,WNW,283,1.0,2.0,96,0.00,,,0.00,0.00,VWS V14.01,2013-01-12 07:18:00,
2013-01-12 02:23:00,51.9,50.8,30.05,WNW,283,0.0,0.0,96,0.00,,,0.00,0.00,VWS V14.01,2013-01-12 07:23:00,
2013-01-12 02:28:00,51.7,50.6,30.05,WNW,283,0.0,0.0,96,0.00,,,0.00,0.00,VWS V14.01,2013-01-12 07:28:00,
2013-01-12 02:33:00,51.7,50.6,30.05,WNW,283,0.0,0.0,96,0.00,,,0.00,0.00,VWS V14.01,2013-01-12 07:33:00,
2013-01-12 02:38:00,51.7,50.6,30.05,WNW,283,0.0,0.0,96,0.00,,,0.00,0.00,VWS V14.01,2013-01-12 07:38:00,
2013-01-12 02:43:00,51.6,50.5,30.05,WNW,283,0.0,0.0,96,0.00,,,0.00,0.00,VWS V14.01,2013-01-12 07:43:00,
2013-01-12 02:48:00,51.6,50.5,30.05,WNW,283,0.0,0.0,96,0.00,,,0.00,0.00,VWS V14.01,2013-01-12 07:48:00,
2013-01-12 02:53:00,51.6,50.5,30.05,WNW,283,0.0,0.0,96,0.00,,,0.00,0.00,VWS V14.01,2013-01-12 07:53:00,
2013-01-12 02:58:00,51.6,50.5,30.05,WNW,283,0.0,0.0,96,0.00,,,0.00,0.00,VWS V14.01,2013-01-12 07:58:00,
2013-01-12 03:03:00,51.6,50.5,30.05,WNW,283,0.0,0.0,96,0.00,,,0.00,0.00,VWS V14.01,2013-01-12 08:03:00,
2013-01-12 03:08:00,51.6,50.5,30.05,WNW,283,0.0,0.0,96,0.00,,,0.00,0.00,VWS V14.01,2013-01-12 08:08:00,
2013-01-12 03:13:00,51.4,50.3,30.05,WNW,283,0.0,0.0,96,0.00,,,0.00,0.00,VWS V14.01,2013-01-12 08:13:00,
2013-01-12 03:18:00,51.4,50.3,30.05,WNW,283,0.0,0.0,96,0.00,,,0.00,0.00,VWS V14.01,2013-01-12 08:18:00,
2013-01-12 03:23:00,51.4,50.3,30.05,WNW,283,0.0,0.0,96,0.00,,,0.00,0.00,VWS V14.01,2013-01-12 08:23:00,
2013-01-12 03:28:00,51.4,50.3,30.05,WNW,283,0.0,0.0,96,0.00,,,0.00,0.00,VWS V14.01,2013-01-12 08:28:00,
2013-01-12 03:33:00,51.4,50.3,30.04,WNW,283,0.0,0.0,96,0.00,,,0.00,0.00,VWS V14.01,2013-01-12 08:33:00,
2013-01-12 03:38:00,51.4,50.3,30.04,WNW,283,0.0,0.0,96,0.00,,,0.00,0.00,VWS V14.01,2013-01-12 08:38:00,
2013-01-12 03:43:00,51.4,50.3,30.04,WNW,283,0.0,0.0,96,0.00,,,0.00,0.00,VWS V14.01,2013-01-12 08:43:00,
2013-01-12 03:48:00,51.3,50.2,30.04,WNW,283,0.0,0.0,96,0.00,,,0.00,0.00,VWS V14.01,2013-01-12 08:48:00,
2013-01-12 03:53:00,51.3,50.2,30.04,WNW,283,0.0,0.0,96,0.00,,,0.00,0.00,VWS V14.01,2013-01-12 08:53:00,
2013-01-12 03:58:00,51.3,50.2,30.04,WNW,283,0.0,0.0,96,0.00,,,0.00,0.00,VWS V14.01,2013-01-12 08:58:00,
2013-01-12 04:03:00,51.3,50.2,30.04,WNW,283,1.0,2.0,96,0.00,,,0.00,0.00,VWS V14.01,2013-01-12 09:03:00,
2013-01-12 04:08:00,51.4,50.3,30.04,WNW,283,0.0,0.0,96,0.00,,,0.00,0.00,VWS V14.01,2013-01-12 09:08:00,
2013-01-12 04:13:00,51.6,50.5,30.04,WNW,283,1.0,2.0,96,0.00,,,0.00,0.00,VWS V14.01,2013-01-12 09:13:00,
2013-01-12 04:18:00,51.7,50.6,30.04,WNW,283,0.0,0.0,96,0.00,,,0.00,0.00,VWS V14.01,2013-01-12 09:18:00,
2013-01-12 04:23:00,51.7,50.6,30.04,WNW,283,0.0,0.0,96,0.00,,,0.00,0.00,VWS V14.01,2013-01-12 09:23:00,
2013-01-12 04:28:00,51.9,50.8,30.04,WNW,283,0.0,0.0,96,0.00,,,0.00,0.00,VWS V14.01,2013-01-12 09:28:00,
2013-01-12 04:33:00,51.7,50.6,30.03,WNW,283,0.0,0.0,96,0.00,,,0.00,0.00,VWS V14.01,2013-01-12 09:33:00,
2013-01-12 04:38:00,51.9,50.8,30.03,WNW,283,0.0,0.0,96,0.00,,,0.00,0.00,VWS V14.01,2013-01-12 09:38:00,
2013-01-12 04:43:00,51.9,50.8,30.03,WNW,283,0.0,0.0,96,0.00,,,0.00,0.00,VWS V14.01,2013-01-12 09:43:00,
2013-01-12 04:48:00,51.9,50.8,30.03,WNW,283,0.0,0.0,96,0.00,,,0.00,0.00,VWS V14.01,2013-01-12 09:48:00,
2013-01-12 04:53:00,51.9,50.8,30.03,WNW,283,0.0,0.0,96,0.00,,,0.00,0.00,VWS V14.01,2013-01-12 09:53:00,
2013-01-12 04:58:00,52.0,50.9,30.03,WNW,283,2.0,2.0,96,0.00,,,0.00,0.00,VWS V14.01,2013-01-12 09:58:00,
2013-01-12 05:03:00,51.9,50.8,30.03,WNW,283,2.0,2.0,96,0.00,,,0.00,0.00,VWS V14.01,2013-01-12 10:03:00,
2013-01-12 05:08:00,52.0,50.9,30.03,WNW,283,0.0,0.0,96,0.00,,,0.00,0.00,VWS V14.01,2013-01-12 10:08:00,
2013-01-12 05:13:00,52.0,50.9,30.03,WNW,283,0.0,0.0,96,0.00,,,0.00,0.00,VWS V14.01,2013-01-12 10:13:00,
2013-01-12 05:18:00,52.0,50.9,30.03,WNW,283,0.0,0.0,96,0.00,,,0.00,0.00,VWS V14.01,2013-01-12 10:18:00,
2013-01-12 05:23:00,51.9,50.8,30.03,WNW,283,0.0,0.0,96,0.00,,,0.00,0.00,VWS V14.01,2013-01-12 10:23:00,
2013-01-12 05:28:00,51.9,50.8,30.03,WNW,283,0.0,0.0,96,0.00,,,0.00,0.00,VWS V14.01,2013-01-12 10:28:00,
2013-01-12 05:33:00,51.9,50.8,30.02,WNW,283,0.0,0.0,96,0.00,,,0.00,0.00,VWS V14.01,2013-01-12 10:33:00,
2013-01-12 05:38:00,51.7,50.6,30.02,WNW,283,0.0,0.0,96,0.00,,,0.00,0.00,VWS V14.01,2013-01-12 10:38:00,
2013-01-12 05:43:00,51.7,50.6,30.02,WNW,283,0.0,0.0,96,0.00,,,0.00,0.00,VWS V14.01,2013-01-12 10:43:00,
2013-01-12 05:48:00,51.6,50.5,30.02,WNW,283,0.0,0.0,96,0.00,,,0.00,0.00,VWS V14.01,2013-01-12 10:48:00,
2013-01-12 05:53:00,51.6,50.5,30.02,WNW,283,0.0,0.0,96,0.00,,,0.00,0.00,VWS V14.01,2013-01-12 10:53:00,
2013-01-12 05:58:00,51.4,50.3,30.02,WNW,283,0.0,0.0,96,0.00,,,0.00,0.00,VWS V14.01,2013-01-12 10:58:00,
2013-01-12 06:03:00,51.4,50.3,30.03,WNW,283,0.0,0.0,96,0.00,,,0.00,0.00,VWS V14.01,2013-01-12 11:03:00,
2013-01-12 06:08:00,51.4,50.3,30.03,WNW,283,0.0,1.0,96,0.00,,,0.00,0.00,VWS V14.01,2013-01-12 11:08:00,
2013-01-12 06:13:00,51.4,50.3,30.03,WNW,283,2.0,2.0,96,0.00,,,0.00,0.00,VWS V14.01,2013-01-12 11:13:00,
2013-01-12 06:18:00,51.4,50.3,30.03,WNW,283,0.0,0.0,96,0.00,,,0.00,0.00,VWS V14.01,2013-01-12 11:18:00,
2013-01-12 06:23:00,51.4,50.3,30.03,WNW,283,0.0,0.0,96,0.00,,,0.00,0.00,VWS V14.01,2013-01-12 11:23:00,
2013-01-12 06:28:00,51.4,50.3,30.03,WNW,283,0.0,0.0,96,0.00,,,0.00,0.00,VWS V14.01,2013-01-12 11:28:00,
2013-01-12 06:33:00,51.4,50.3,30.04,WNW,283,1.0,2.0,96,0.00,,,0.00,0.00,VWS V14.01,2013-01-12 11:33:00,
2013-01-12 06:38:00,51.6,50.5,30.04,WNW,283,0.0,0.0,96,0.00,,,0.00,0.00,VWS V14.01,2013-01-12 11:38:00,
2013-01-12 06:43:00,51.6,50.5,30.04,WNW,283,0.0,0.0,96,0.00,,,0.00,0.00,VWS V14.01,2013-01-12 11:43:00,
2013-01-12 06:48:00,51.6,50.5,30.04,WNW,283,0.0,0.0,96,0.00,,,0.00,0.00,VWS V14.01,2013-01-12 11:48:00,
2013-01-12 06:53:00,51.6,50.5,30.04,WNW,283,0.0,0.0,96,0.00,,,0.00,0.00,VWS V14.01,2013-01-12 11:53:00,
2013-01-12 06:58:00,51.6,50.5,30.04,WNW,283,0.0,0.0,96,0.00,,,0.00,0.00,VWS V14.01,2013-01-12 11:58:00,
2013-01-12 07:03:00,51.6,50.5,30.04,WNW,283,0.0,0.0,96,0.00,,,0.00,0.00,VWS V14.01,2013-01-12 12:03:00,
2013-01-12 07:08:00,51.6,50.5,30.04,WNW,283,0.0,0.0,96,0.00,,,0.00,0.00,VWS V14.01,2013-01-12 12:08:00,
2013-01-12 07:13:00,51.6,50.5,30.04,WNW,283,0.0,0.0,96,0.00,,,0.00,0.00,VWS V14.01,2013-01-12 12:13:00,
2013-01-12 07:18:00,51.6,50.8,30.04,WNW,283,0.0,0.0,97,0.00,,,0.00,0.00,VWS V14.01,2013-01-12 12:18:00,
2013-01-12 07:23:00,51.6,50.5,30.04,WNW,283,0.0,0.0,96,0.00,,,0.00,0.00,VWS V14.01,2013-01-12 12:23:00,
2013-01-12 07:28:00,51.6,50.5,30.04,WNW,283,0.0,0.0,96,0.00,,,0.00,0.00,VWS V14.01,2013-01-12 12:28:00,
2013-01-12 07:33:00,51.6,50.5,30.05,WNW,283,0.0,0.0,96,0.00,,,0.00,0.00,VWS V14.01,2013-01-12 12:33:00,
2013-01-12 07:38:00,51.6,50.5,30.05,West,280,0.0,0.0,96,0.00,,,0.00,7.00,VWS V14.01,2013-01-12 12:38:00,
2013-01-12 07:43:00,51.7,50.6,30.05,West,280,0.0,0.0,96,0.00,,,0.00,9.00,VWS V14.01,2013-01-12 12:43:00,
2013-01-12 07:47:00,51.7,50.6,30.06,West,280,0.0,0.0,96,0.00,,,0.00,11.00,VWS V14.01,2013-01-12 12:47:00,
2013-01-12 07:52:00,51.7,50.9,30.06,West,280,0.0,0.0,97,0.00,,,0.00,14.00,VWS V14.01,2013-01-12 12:52:00,
2013-01-12 07:57:00,51.9,51.1,30.06,West,280,0.0,0.0,97,0.00,,,0.00,16.00,VWS V14.01,2013-01-12 12:57:00,
2013-01-12 08:02:00,51.9,51.1,30.06,West,280,0.0,0.0,97,0.00,,,0.00,25.00,VWS V14.01,2013-01-12 13:02:00,
2013-01-12 08:07:00,51.9,51.1,30.06,West,280,0.0,0.0,97,0.00,,,0.00,26.00,VWS V14.01,2013-01-12 13:07:00,
2013-01-12 08:12:00,52.0,51.2,30.06,West,280,0.0,0.0,97,0.00,,,0.00,35.00,VWS V14.01,2013-01-12 13:12:00,
2013-01-12 08:18:00,52.2,51.4,30.06,West,280,0.0,0.0,97,0.00,,,0.00,46.00,VWS V14.01,2013-01-12 13:18:00,
2013-01-12 08:23:00,52.3,51.5,30.06,West,280,0.0,0.0,97,0.00,,,0.00,28.00,VWS V14.01,2013-01-12 13:23:00,
2013-01-12 08:28:00,52.5,51.7,30.06,West,280,0.0,0.0,97,0.00,,,0.00,72.00,VWS V14.01,2013-01-12 13:28:00,
2013-01-12 08:33:00,52.8,52.0,30.06,West,280,0.0,0.0,97,0.00,,,0.00,69.00,VWS V14.01,2013-01-12 13:33:00,
2013-01-12 08:38:00,52.9,52.1,30.06,West,280,0.0,0.0,97,0.00,,,0.00,47.00,VWS V14.01,2013-01-12 13:38:00,
2013-01-12 08:43:00,53.1,52.3,30.06,West,280,0.0,0.0,97,0.00,,,0.00,53.00,VWS V14.01,2013-01-12 13:43:00,
2013-01-12 08:48:00,53.2,52.4,30.07,West,280,2.0,2.0,97,0.00,,,0.00,84.00,VWS V14.01,2013-01-12 13:48:00,
2013-01-12 08:53:00,53.3,52.5,30.07,West,280,3.0,3.0,97,0.00,,,0.00,67.00,VWS V14.01,2013-01-12 13:53:00,
2013-01-12 08:58:00,53.3,52.5,30.07,West,280,0.0,0.0,97,0.00,,,0.00,28.00,VWS V14.01,2013-01-12 13:58:00,
2013-01-12 09:03:00,53.3,52.5,30.07,West,280,0.0,0.0,97,0.00,,,0.00,40.00,VWS V14.01,2013-01-12 14:03:00,
2013-01-12 09:08:00,53.5,52.7,30.07,West,280,2.0,2.0,97,0.00,,,0.00,125.00,VWS V14.01,2013-01-12 14:08:00,
2013-01-12 09:13:00,53.6,52.8,30.07,West,280,0.0,0.0,97,0.00,,,0.00,84.00,VWS V14.01,2013-01-12 14:13:00,
2013-01-12 09:17:00,53.8,53.0,30.07,West,280,1.0,2.0,97,0.00,,,0.00,120.00,VWS V14.01,2013-01-12 14:17:00,
2013-01-12 09:23:00,53.9,53.1,30.07,West,280,0.0,1.0,97,0.00,,,0.00,146.00,VWS V14.01,2013-01-12 14:23:00,
2013-01-12 09:27:00,54.4,53.6,30.07,West,280,0.0,0.0,97,0.00,,,0.00,149.00,VWS V14.01,2013-01-12 14:27:00,
2013-01-12 09:32:00,54.7,53.9,30.07,West,280,0.0,0.0,97,0.00,,,0.00,118.00,VWS V14.01,2013-01-12 14:32:00,
2013-01-12 09:37:00,54.8,54.0,30.07,West,280,0.0,0.0,97,0.00,,,0.00,72.00,VWS V14.01,2013-01-12 14:37:00,
2013-01-12 09:42:00,55.0,54.2,30.07,West,280,0.0,0.0,97,0.00,,,0.00,74.00,VWS V14.01,2013-01-12 14:42:00,
2013-01-12 09:47:00,55.1,54.3,30.07,West,280,0.0,0.0,97,0.00,,,0.00,113.00,VWS V14.01,2013-01-12 14:47:00,
2013-01-12 09:52:00,55.3,54.5,30.07,West,280,0.0,0.0,97,0.00,,,0.00,63.00,VWS V14.01,2013-01-12 14:52:00,
2013-01-12 09:57:00,55.4,54.6,30.07,West,280,0.0,0.0,97,0.00,,,0.00,77.00,VWS V14.01,2013-01-12 14:57:00,
2013-01-12 10:02:00,55.4,54.6,30.07,West,280,0.0,0.0,97,0.00,,,0.00,91.00,VWS V14.01,2013-01-12 15:02:00,
2013-01-12 10:07:00,55.6,54.8,30.07,West,280,0.0,0.0,97,0.00,,,0.00,93.00,VWS V14.01,2013-01-12 15:07:00,
2013-01-12 10:12:00,55.7,54.9,30.07,West,280,0.0,0.0,97,0.00,,,0.00,81.00,VWS V14.01,2013-01-12 15:12:00,
2013-01-12 10:17:00,55.9,55.1,30.07,West,280,0.0,0.0,97,0.00,,,0.00,81.00,VWS V14.01,2013-01-12 15:17:00,
2013-01-12 10:22:00,55.9,55.1,30.07,West,280,0.0,0.0,97,0.00,,,0.00,62.00,VWS V14.01,2013-01-12 15:22:00,
2013-01-12 10:27:00,56.0,55.2,30.07,West,280,0.0,0.0,97,0.00,,,0.00,74.00,VWS V14.01,2013-01-12 15:27:00,
2013-01-12 10:32:00,56.0,55.2,30.07,West,280,0.0,0.0,97,0.00,,,0.00,67.00,VWS V14.01,2013-01-12 15:32:00,
2013-01-12 10:37:00,56.2,55.4,30.07,West,280,0.0,0.0,97,0.00,,,0.00,79.00,VWS V14.01,2013-01-12 15:37:00,
2013-01-12 10:42:00,56.3,55.5,30.07,West,280,0.0,0.0,97,0.00,,,0.00,84.00,VWS V14.01,2013-01-12 15:42:00,
2013-01-12 10:47:00,56.5,55.7,30.07,West,280,0.0,0.0,97,0.00,,,0.00,88.00,VWS V14.01,2013-01-12 15:47:00,
2013-01-12 10:52:00,56.6,55.8,30.07,West,280,0.0,0.0,97,0.00,,,0.00,93.00,VWS V14.01,2013-01-12 15:52:00,
2013-01-12 10:57:00,56.9,56.1,30.07,West,280,0.0,0.0,97,0.00,,,0.00,105.00,VWS V14.01,2013-01-12 15:57:00,
2013-01-12 11:02:00,57.0,56.2,30.06,West,280,0.0,0.0,97,0.00,,,0.00,121.00,VWS V14.01,2013-01-12 16:02:00,
2013-01-12 11:07:00,57.5,56.7,30.06,West,280,0.0,1.0,97,0.00,,,0.00,144.00,VWS V14.01,2013-01-12 16:07:00,
2013-01-12 11:12:00,57.8,57.0,30.06,SW,226,0.0,0.0,97,0.00,,,0.00,149.00,VWS V14.01,2013-01-12 16:12:00,
2013-01-12 11:17:00,58.1,57.3,30.06,SW,226,0.0,0.0,97,0.00,,,0.00,134.00,VWS V14.01,2013-01-12 16:17:00,
2013-01-12 11:22:00,58.3,57.5,30.06,SW,226,0.0,0.0,97,0.00,,,0.00,120.00,VWS V14.01,2013-01-12 16:22:00,
2013-01-12 11:27:00,58.4,57.6,30.06,SW,227,0.0,0.0,97,0.00,,,0.00,128.00,VWS V14.01,2013-01-12 16:27:00,
2013-01-12 11:32:00,58.6,57.8,30.05,SW,228,2.0,4.0,97,0.00,,,0.00,155.00,VWS V14.01,2013-01-12 16:32:00,
2013-01-12 11:37:00,58.7,57.8,30.05,WSW,255,5.0,5.0,97,0.00,,,0.00,160.00,VWS V14.01,2013-01-12 16:37:00,
2013-01-12 11:42:00,58.9,58.0,30.05,WSW,256,0.0,0.0,97,0.00,,,0.00,181.00,VWS V14.01,2013-01-12 16:42:00,
2013-01-12 11:47:00,59.0,58.2,30.04,WSW,256,3.0,3.0,97,0.00,,,0.00,167.00,VWS V14.01,2013-01-12 16:47:00,
2013-01-12 11:52:00,59.0,58.2,30.04,WSW,255,3.0,3.0,97,0.00,,,0.00,237.00,VWS V14.01,2013-01-12 16:52:00,
2013-01-12 11:57:00,59.3,58.5,30.04,WSW,255,0.0,0.0,97,0.00,,,0.00,295.00,VWS V14.01,2013-01-12 16:57:00,
2013-01-12 12:02:00,59.6,58.8,30.03,WSW,255,3.0,4.0,97,0.00,,,0.00,229.00,VWS V14.01,2013-01-12 17:02:00,
2013-01-12 12:07:00,59.9,59.0,30.03,WSW,244,4.0,4.0,97,0.00,,,0.00,213.00,VWS V14.01,2013-01-12 17:07:00,
2013-01-12 12:12:00,60.1,59.2,30.03,WSW,244,0.0,0.0,97,0.00,,,0.00,200.00,VWS V14.01,2013-01-12 17:12:00,
2013-01-12 12:17:00,60.4,59.3,30.03,WSW,243,3.0,4.0,96,0.00,,,0.00,255.00,VWS V14.01,2013-01-12 17:17:00,
2013-01-12 12:22:00,60.7,59.6,30.03,West,260,6.0,6.0,96,0.00,,,0.00,343.00,VWS V14.01,2013-01-12 17:22:00,
2013-01-12 12:27:00,60.9,59.8,30.03,SW,217,5.0,5.0,96,0.00,,,0.00,264.00,VWS V14.01,2013-01-12 17:27:00,
2013-01-12 12:32:00,61.0,59.9,30.03,WSW,253,4.0,4.0,96,0.00,,,0.00,211.00,VWS V14.01,2013-01-12 17:32:00,
2013-01-12 12:37:00,61.3,59.9,30.03,WSW,244,2.0,3.0,95,0.00,,,0.00,223.00,VWS V14.01,2013-01-12 17:37:00,
2013-01-12 12:42:00,61.5,59.8,30.03,WSW,244,0.0,0.0,94,0.00,,,0.00,218.00,VWS V14.01,2013-01-12 17:42:00,
2013-01-12 12:47:00,61.6,59.6,30.02,WSW,245,0.0,0.0,93,0.00,,,0.00,225.00,VWS V14.01,2013-01-12 17:47:00,
2013-01-12 12:52:00,62.0,60.0,30.02,WSW,244,0.0,0.0,93,0.00,,,0.00,374.00,VWS V14.01,2013-01-12 17:52:00,
2013-01-12 12:57:00,62.4,60.0,30.02,West,267,0.0,0.0,92,0.00,,,0.00,408.00,VWS V14.01,2013-01-12 17:57:00,
2013-01-12 13:02:00,63.1,60.1,30.02,WNW,285,0.0,0.0,90,0.00,,,0.00,424.00,VWS V14.01,2013-01-12 18:02:00,
2013-01-12 13:07:00,63.7,60.1,30.02,WNW,285,0.0,0.0,88,0.00,,,0.00,396.00,VWS V14.01,2013-01-12 18:07:00,
2013-01-12 13:12:00,64.2,59.9,30.02,WNW,285,0.0,0.0,86,0.00,,,0.00,635.00,VWS V14.01,2013-01-12 18:12:00,
2013-01-12 13:17:00,65.0,60.0,30.01,NW,306,2.0,4.0,84,0.00,,,0.00,554.00,VWS V14.01,2013-01-12 18:17:00,
2013-01-12 13:22:00,65.6,59.6,30.01,WNW,283,0.0,3.0,81,0.00,,,0.00,531.00,VWS V14.01,2013-01-12 18:22:00,
2013-01-12 13:27:00,66.3,59.6,30.01,WNW,283,0.0,0.0,79,0.00,,,0.00,501.00,VWS V14.01,2013-01-12 18:27:00,
2013-01-12 13:32:00,66.6,59.2,30.02,North,354,0.0,0.0,77,0.00,,,0.00,492.00,VWS V14.01,2013-01-12 18:32:00,
2013-01-12 13:37:00,66.9,58.7,30.02,WNW,293,0.0,0.0,75,0.00,,,0.00,480.00,VWS V14.01,2013-01-12 18:37:00,
2013-01-12 13:42:00,67.6,59.0,30.02,North,0,3.0,5.0,74,0.00,,,0.00,476.00,VWS V14.01,2013-01-12 18:42:00,
2013-01-12 13:47:00,67.8,58.8,30.01,North,0,0.0,5.0,73,0.00,,,0.00,167.00,VWS V14.01,2013-01-12 18:47:00,
2013-01-12 13:52:00,68.1,59.1,30.01,North,0,0.0,0.0,73,0.00,,,0.00,251.00,VWS V14.01,2013-01-12 18:52:00,
2013-01-12 13:57:00,68.4,59.4,30.01,North,0,0.0,0.0,73,0.00,,,0.00,396.00,VWS V14.01,2013-01-12 18:57:00,
2013-01-12 14:02:00,68.8,59.0,30.01,North,0,0.0,0.0,71,0.00,,,0.00,461.00,VWS V14.01,2013-01-12 19:02:00,
2013-01-12 14:07:00,69.4,59.2,30.01,North,0,0.0,0.0,70,0.00,,,0.00,468.00,VWS V14.01,2013-01-12 19:07:00,
2013-01-12 14:12:00,69.8,59.2,30.01,North,0,0.0,0.0,69,0.00,,,0.00,200.00,VWS V14.01,2013-01-12 19:12:00,
2013-01-12 14:17:00,70.1,59.5,30.01,North,0,0.0,0.0,69,0.00,,,0.00,519.00,VWS V14.01,2013-01-12 19:17:00,
2013-01-12 14:22:00,70.4,59.3,30.01,North,0,0.0,0.0,68,0.00,,,0.00,401.00,VWS V14.01,2013-01-12 19:22:00,
2013-01-12 14:27:00,70.8,59.7,30.01,North,0,0.0,0.0,68,0.00,,,0.00,387.00,VWS V14.01,2013-01-12 19:27:00,
2013-01-12 14:32:00,70.9,59.4,30.01,North,0,0.0,0.0,67,0.00,,,0.00,216.00,VWS V14.01,2013-01-12 19:32:00,
2013-01-12 14:37:00,71.1,59.6,30.01,North,0,2.0,3.0,67,0.00,,,0.00,438.00,VWS V14.01,2013-01-12 19:37:00,
2013-01-12 14:42:00,71.3,59.8,30.01,ENE,70,0.0,4.0,67,0.00,,,0.00,390.00,VWS V14.01,2013-01-12 19:42:00,
2013-01-12 14:47:00,71.1,59.6,30.01,ENE,70,0.0,0.0,67,0.00,,,0.00,420.00,VWS V14.01,2013-01-12 19:47:00,
2013-01-12 14:52:00,71.1,59.2,30.01,ENE,70,0.0,0.0,66,0.00,,,0.00,334.00,VWS V14.01,2013-01-12 19:52:00,
2013-01-12 14:57:00,71.1,59.6,30.01,ENE,70,0.0,0.0,67,0.00,,,0.00,227.00,VWS V14.01,2013-01-12 19:57:00,
2013-01-12 15:02:00,71.1,59.6,30.01,ENE,70,0.0,0.0,67,0.00,,,0.00,292.00,VWS V14.01,2013-01-12 20:02:00,
2013-01-12 15:07:00,71.1,60.0,30.01,ENE,70,0.0,0.0,68,0.00,,,0.00,149.00,VWS V14.01,2013-01-12 20:07:00,
2013-01-12 15:12:00,71.1,60.0,30.01,ENE,70,0.0,0.0,68,0.00,,,0.00,151.00,VWS V14.01,2013-01-12 20:12:00,
2013-01-12 15:17:00,71.1,59.6,30.02,ENE,70,0.0,0.0,67,0.00,,,0.00,144.00,VWS V14.01,2013-01-12 20:17:00,
2013-01-12 15:22:00,70.9,59.8,30.02,ENE,70,0.0,0.0,68,0.00,,,0.00,148.00,VWS V14.01,2013-01-12 20:22:00,
2013-01-12 15:27:00,70.9,59.8,30.02,ENE,70,0.0,0.0,68,0.00,,,0.00,148.00,VWS V14.01,2013-01-12 20:27:00,
2013-01-12 15:32:00,70.9,59.8,30.02,ENE,70,0.0,0.0,68,0.00,,,0.00,135.00,VWS V14.01,2013-01-12 20:32:00,
2013-01-12 15:37:00,70.8,59.7,30.02,ENE,70,0.0,2.0,68,0.00,,,0.00,97.00,VWS V14.01,2013-01-12 20:37:00,
2013-01-12 15:42:00,70.6,60.0,30.02,ENE,69,0.0,3.0,69,0.00,,,0.00,107.00,VWS V14.01,2013-01-12 20:42:00,
2013-01-12 15:47:00,70.4,59.8,30.02,ENE,70,0.0,2.0,69,0.00,,,0.00,120.00,VWS V14.01,2013-01-12 20:47:00,
2013-01-12 15:52:00,70.3,60.1,30.02,ENE,69,0.0,0.0,70,0.00,,,0.00,107.00,VWS V14.01,2013-01-12 20:52:00,
2013-01-12 15:57:00,70.3,60.1,30.02,ENE,69,0.0,0.0,70,0.00,,,0.00,98.00,VWS V14.01,2013-01-12 20:57:00,
2013-01-12 16:02:00,70.1,60.3,30.02,ENE,70,0.0,0.0,71,0.00,,,0.00,104.00,VWS V14.01,2013-01-12 21:02:00,
2013-01-12 16:07:00,69.9,60.1,30.02,ENE,69,0.0,0.0,71,0.00,,,0.00,102.00,VWS V14.01,2013-01-12 21:07:00,
2013-01-12 16:12:00,69.9,60.1,30.02,ENE,70,0.0,0.0,71,0.00,,,0.00,90.00,VWS V14.01,2013-01-12 21:12:00,
2013-01-12 16:17:00,69.9,60.5,30.02,ENE,70,0.0,0.0,72,0.00,,,0.00,77.00,VWS V14.01,2013-01-12 21:17:00,
2013-01-12 16:22:00,69.8,60.0,30.02,ENE,69,0.0,0.0,71,0.00,,,0.00,81.00,VWS V14.01,2013-01-12 21:22:00,
2013-01-12 16:27:00,69.6,59.8,30.02,ENE,70,0.0,0.0,71,0.00,,,0.00,63.00,VWS V14.01,2013-01-12 21:27:00,
2013-01-12 16:32:00,69.6,60.2,30.02,ENE,70,0.0,0.0,72,0.00,,,0.00,54.00,VWS V14.01,2013-01-12 21:32:00,
2013-01-12 16:37:00,69.4,60.0,30.02,ENE,70,0.0,0.0,72,0.00,,,0.00,42.00,VWS V14.01,2013-01-12 21:37:00,
2013-01-12 16:42:00,69.3,59.9,30.02,ENE,70,0.0,0.0,72,0.00,,,0.00,21.00,VWS V14.01,2013-01-12 21:42:00,
2013-01-12 16:47:00,69.1,59.7,30.02,ENE,70,0.0,0.0,72,0.00,,,0.00,14.00,VWS V14.01,2013-01-12 21:47:00,
2013-01-12 16:52:00,68.9,60.3,30.02,ENE,70,0.0,0.0,74,0.00,,,0.00,12.00,VWS V14.01,2013-01-12 21:52:00,
2013-01-12 16:57:00,68.4,59.8,30.02,ENE,70,0.0,0.0,74,0.00,,,0.00,11.00,VWS V14.01,2013-01-12 21:57:00,
2013-01-12 17:02:00,67.9,59.3,30.01,ENE,70,0.0,0.0,74,0.00,,,0.00,14.00,VWS V14.01,2013-01-12 22:02:00,
2013-01-12 17:07:00,67.4,59.2,30.01,ENE,70,0.0,0.0,75,0.00,,,0.00,12.00,VWS V14.01,2013-01-12 22:07:00,
2013-01-12 17:12:00,66.9,59.1,30.01,ENE,70,0.0,0.0,76,0.00,,,0.00,5.00,VWS V14.01,2013-01-12 22:12:00,
2013-01-12 17:17:00,66.6,59.2,30.01,ENE,70,0.0,0.0,77,0.00,,,0.00,0.00,VWS V14.01,2013-01-12 22:17:00,
2013-01-12 17:22:00,66.1,58.7,30.01,ENE,70,0.0,0.0,77,0.00,,,0.00,0.00,VWS V14.01,2013-01-12 22:22:00,
2013-01-12 17:27:00,65.6,58.6,30.01,ENE,70,0.0,0.0,78,0.00,,,0.00,0.00,VWS V14.01,2013-01-12 22:27:00,
2013-01-12 17:32:00,65.3,58.6,30.02,ENE,70,0.0,0.0,79,0.00,,,0.00,0.00,VWS V14.01,2013-01-12 22:32:00,
2013-01-12 17:37:00,64.8,58.5,30.02,ENE,69,0.0,0.0,80,0.00,,,0.00,0.00,VWS V14.01,2013-01-12 22:37:00,
2013-01-12 17:42:00,64.3,57.7,30.02,ENE,70,0.0,0.0,79,0.00,,,0.00,0.00,VWS V14.01,2013-01-12 22:42:00,
2013-01-12 17:47:00,63.9,57.3,30.02,ENE,70,0.0,0.0,79,0.00,,,0.00,0.00,VWS V14.01,2013-01-12 22:47:00,
2013-01-12 17:52:00,63.4,57.1,30.02,ENE,70,0.0,0.0,80,0.00,,,0.00,0.00,VWS V14.01,2013-01-12 22:52:00,
2013-01-12 17:57:00,62.9,57.3,30.02,ENE,70,0.0,0.0,82,0.00,,,0.00,0.00,VWS V14.01,2013-01-12 22:57:00,
2013-01-12 18:02:00,62.6,57.4,30.02,ENE,70,0.0,0.0,83,0.00,,,0.00,0.00,VWS V14.01,2013-01-12 23:02:00,
2013-01-12 18:07:00,62.1,57.2,30.02,ENE,70,0.0,0.0,84,0.00,,,0.00,0.00,VWS V14.01,2013-01-12 23:07:00,
2013-01-12 18:12:00,61.8,57.2,30.02,ENE,70,0.0,0.0,85,0.00,,,0.00,0.00,VWS V14.01,2013-01-12 23:12:00,
2013-01-12 18:17:00,61.5,57.0,30.02,ENE,70,0.0,0.0,85,0.00,,,0.00,0.00,VWS V14.01,2013-01-12 23:17:00,
2013-01-12 18:22:00,61.2,56.7,30.02,ENE,70,0.0,0.0,85,0.00,,,0.00,0.00,VWS V14.01,2013-01-12 23:22:00,
2013-01-12 18:27:00,60.9,56.4,30.02,ENE,70,0.0,0.0,85,0.00,,,0.00,0.00,VWS V14.01,2013-01-12 23:27:00,
2013-01-12 18:32:00,60.5,56.6,30.02,ENE,70,0.0,0.0,87,0.00,,,0.00,0.00,VWS V14.01,2013-01-12 23:32:00,
2013-01-12 18:37:00,60.4,56.5,30.02,ENE,70,0.0,0.0,87,0.00,,,0.00,0.00,VWS V14.01,2013-01-12 23:37:00,
2013-01-12 18:42:00,60.1,56.2,30.02,ENE,70,0.0,0.0,87,0.00,,,0.00,0.00,VWS V14.01,2013-01-12 23:42:00,
2013-01-12 18:47:00,59.9,56.3,30.02,ENE,70,0.0,0.0,88,0.00,,,0.00,0.00,VWS V14.01,2013-01-12 23:47:00,
2013-01-12 18:52:00,59.6,56.0,30.02,ENE,70,0.0,0.0,88,0.00,,,0.00,0.00,VWS V14.01,2013-01-12 23:52:00,
2013-01-12 18:57:00,59.5,56.3,30.02,ENE,70,0.0,0.0,89,0.00,,,0.00,0.00,VWS V14.01,2013-01-12 23:57:00,
2013-01-12 19:02:00,59.3,56.1,30.01,ENE,70,0.0,0.0,89,0.00,,,0.00,0.00,VWS V14.01,2013-01-13 00:02:00,
2013-01-12 19:07:00,59.2,56.3,30.01,ENE,70,0.0,0.0,90,0.00,,,0.00,0.00,VWS V14.01,2013-01-13 00:07:00,
2013-01-12 19:12:00,59.0,56.4,30.01,ENE,70,0.0,0.0,91,0.00,,,0.00,0.00,VWS V14.01,2013-01-13 00:12:00,
2013-01-12 19:17:00,59.0,56.4,30.01,ENE,70,0.0,0.0,91,0.00,,,0.00,0.00,VWS V14.01,2013-01-13 00:17:00,
2013-01-12 19:22:00,59.2,56.9,30.01,ENE,70,0.0,0.0,92,0.00,,,0.00,0.00,VWS V14.01,2013-01-13 00:22:00,
2013-01-12 19:27:00,59.2,56.9,30.01,ENE,70,0.0,0.0,92,0.00,,,0.00,0.00,VWS V14.01,2013-01-13 00:27:00,
2013-01-12 19:32:00,59.0,56.7,30.01,ENE,70,0.0,0.0,92,0.00,,,0.00,0.00,VWS V14.01,2013-01-13 00:32:00,
2013-01-12 19:37:00,58.7,56.4,30.01,ENE,70,0.0,0.0,92,0.00,,,0.00,0.00,VWS V14.01,2013-01-13 00:37:00,
2013-01-12 19:42:00,58.6,56.3,30.01,ENE,70,0.0,0.0,92,0.00,,,0.00,0.00,VWS V14.01,2013-01-13 00:42:00,
2013-01-12 19:47:00,58.4,56.1,30.01,ENE,70,0.0,0.0,92,0.00,,,0.00,0.00,VWS V14.01,2013-01-13 00:47:00,
2013-01-12 19:52:00,58.3,56.3,30.01,ENE,70,0.0,0.0,93,0.00,,,0.00,0.00,VWS V14.01,2013-01-13 00:52:00,
2013-01-12 19:57:00,58.1,56.1,30.01,ENE,70,0.0,0.0,93,0.00,,,0.00,0.00,VWS V14.01,2013-01-13 00:57:00,
2013-01-12 20:02:00,57.8,55.8,30.01,ENE,70,0.0,0.0,93,0.00,,,0.00,0.00,VWS V14.01,2013-01-13 01:02:00,
2013-01-12 20:07:00,57.5,55.5,30.01,ENE,70,0.0,0.0,93,0.00,,,0.00,0.00,VWS V14.01,2013-01-13 01:07:00,
2013-01-12 20:12:00,57.3,55.3,30.01,ENE,70,0.0,0.0,93,0.00,,,0.00,0.00,VWS V14.01,2013-01-13 01:12:00,
2013-01-12 20:17:00,57.0,55.0,30.01,ENE,70,0.0,0.0,93,0.00,,,0.00,0.00,VWS V14.01,2013-01-13 01:17:00,
2013-01-12 20:22:00,56.9,54.9,30.01,ENE,70,0.0,0.0,93,0.00,,,0.00,0.00,VWS V14.01,2013-01-13 01:22:00,
2013-01-12 20:27:00,56.6,54.6,30.01,ENE,70,0.0,0.0,93,0.00,,,0.00,0.00,VWS V14.01,2013-01-13 01:27:00,
2013-01-12 20:32:00,56.3,54.3,30.02,ENE,70,0.0,0.0,93,0.00,,,0.00,0.00,VWS V14.01,2013-01-13 01:32:00,
2013-01-12 20:37:00,56.2,54.2,30.02,ENE,70,0.0,0.0,93,0.00,,,0.00,0.00,VWS V14.01,2013-01-13 01:37:00,
2013-01-12 20:42:00,56.0,54.0,30.02,ENE,70,0.0,0.0,93,0.00,,,0.00,0.00,VWS V14.01,2013-01-13 01:42:00,
2013-01-12 20:47:00,55.9,53.9,30.02,ENE,70,0.0,0.0,93,0.00,,,0.00,0.00,VWS V14.01,2013-01-13 01:47:00,
2013-01-12 20:52:00,55.7,53.7,30.02,ENE,70,0.0,0.0,93,0.00,,,0.00,0.00,VWS V14.01,2013-01-13 01:52:00,
2013-01-12 20:57:00,55.4,53.4,30.02,ENE,70,0.0,0.0,93,0.00,,,0.00,0.00,VWS V14.01,2013-01-13 01:57:00,
2013-01-12 21:02:00,55.3,53.3,30.02,ENE,70,0.0,0.0,93,0.00,,,0.00,0.00,VWS V14.01,2013-01-13 02:02:00,
2013-01-12 21:07:00,55.1,53.1,30.02,ENE,70,0.0,0.0,93,0.00,,,0.00,0.00,VWS V14.01,2013-01-13 02:07:00,
2013-01-12 21:12:00,55.0,53.0,30.02,ENE,70,0.0,0.0,93,0.00,,,0.00,0.00,VWS V14.01,2013-01-13 02:12:00,
2013-01-12 21:17:00,55.0,53.0,30.02,ENE,70,0.0,0.0,93,0.00,,,0.00,0.00,VWS V14.01,2013-01-13 02:17:00,
2013-01-12 21:22:00,54.8,52.8,30.02,ENE,70,0.0,0.0,93,0.00,,,0.00,0.00,VWS V14.01,2013-01-13 02:22:00,
2013-01-12 21:27:00,55.0,53.3,30.02,ENE,70,0.0,0.0,94,0.00,,,0.00,0.00,VWS V14.01,2013-01-13 02:27:00,
2013-01-12 21:32:00,55.0,53.3,30.02,ENE,70,0.0,0.0,94,0.00,,,0.00,0.00,VWS V14.01,2013-01-13 02:32:00,
2013-01-12 21:37:00,55.0,53.3,30.02,ENE,69,0.0,0.0,94,0.00,,,0.00,0.00,VWS V14.01,2013-01-13 02:37:00,
2013-01-12 21:42:00,55.0,53.3,30.02,ENE,70,0.0,0.0,94,0.00,,,0.00,0.00,VWS V14.01,2013-01-13 02:42:00,
2013-01-12 21:47:00,55.0,53.3,30.02,ENE,70,0.0,0.0,94,0.00,,,0.00,0.00,VWS V14.01,2013-01-13 02:47:00,
2013-01-12 21:52:00,54.8,53.1,30.02,ENE,70,0.0,0.0,94,0.00,,,0.00,0.00,VWS V14.01,2013-01-13 02:52:00,
2013-01-12 21:57:00,54.8,53.1,30.02,ENE,70,0.0,0.0,94,0.00,,,0.00,0.00,VWS V14.01,2013-01-13 02:57:00,
2013-01-12 22:02:00,54.7,53.0,30.02,ENE,70,0.0,0.0,94,0.00,,,0.00,0.00,VWS V14.01,2013-01-13 03:02:00,
2013-01-12 22:07:00,54.5,52.8,30.02,ENE,69,0.0,0.0,94,0.00,,,0.00,0.00,VWS V14.01,2013-01-13 03:07:00,
2013-01-12 22:12:00,54.5,52.8,30.02,ENE,70,0.0,0.0,94,0.00,,,0.00,0.00,VWS V14.01,2013-01-13 03:12:00,
2013-01-12 22:17:00,54.4,52.7,30.02,ENE,70,0.0,0.0,94,0.00,,,0.00,0.00,VWS V14.01,2013-01-13 03:17:00,
2013-01-12 22:22:00,54.4,52.7,30.02,ENE,70,0.0,0.0,94,0.00,,,0.00,0.00,VWS V14.01,2013-01-13 03:22:00,
2013-01-12 22:27:00,54.2,52.5,30.02,ENE,70,0.0,0.0,94,0.00,,,0.00,0.00,VWS V14.01,2013-01-13 03:27:00,
2013-01-12 22:32:00,54.1,52.7,30.03,ENE,70,0.0,0.0,95,0.00,,,0.00,0.00,VWS V14.01,2013-01-13 03:32:00,
2013-01-12 22:37:00,53.9,52.2,30.03,ENE,70,0.0,0.0,94,0.00,,,0.00,0.00,VWS V14.01,2013-01-13 03:37:00,
2013-01-12 22:42:00,53.9,52.5,30.03,ENE,70,0.0,0.0,95,0.00,,,0.00,0.00,VWS V14.01,2013-01-13 03:42:00,
2013-01-12 22:47:00,53.8,52.4,30.03,ENE,70,0.0,0.0,95,0.00,,,0.00,0.00,VWS V14.01,2013-01-13 03:47:00,
2013-01-12 22:52:00,53.8,52.4,30.03,ENE,70,0.0,0.0,95,0.00,,,0.00,0.00,VWS V14.01,2013-01-13 03:52:00,
2013-01-12 22:57:00,53.6,52.2,30.03,ENE,70,0.0,0.0,95,0.00,,,0.00,0.00,VWS V14.01,2013-01-13 03:57:00,
2013-01-12 23:02:00,53.6,52.2,30.03,ENE,70,0.0,0.0,95,0.00,,,0.00,0.00,VWS V14.01,2013-01-13 04:02:00,
2013-01-12 23:07:00,53.6,52.2,30.03,ENE,70,0.0,0.0,95,0.00,,,0.00,0.00,VWS V14.01,2013-01-13 04:07:00,
2013-01-12 23:12:00,53.5,52.1,30.03,ENE,70,0.0,0.0,95,0.00,,,0.00,0.00,VWS V14.01,2013-01-13 04:12:00,
2013-01-12 23:17:00,53.5,52.1,30.02,ENE,70,0.0,0.0,95,0.00,,,0.00,0.00,VWS V14.01,2013-01-13 04:17:00,
2013-01-12 23:22:00,53.3,51.9,30.02,ENE,70,0.0,0.0,95,0.00,,,0.00,0.00,VWS V14.01,2013-01-13 04:22:00,
2013-01-12 23:27:00,53.2,51.8,30.02,ENE,70,0.0,0.0,95,0.00,,,0.00,0.00,VWS V14.01,2013-01-13 04:27:00,
2013-01-12 23:32:00,53.2,51.8,30.02,ENE,70,0.0,0.0,95,0.00,,,0.00,0.00,VWS V14.01,2013-01-13 04:32:00,
2013-01-12 23:37:00,53.3,51.9,30.02,ENE,70,0.0,0.0,95,0.00,,,0.00,0.00,VWS V14.01,2013-01-13 04:37:00,
2013-01-12 23:42:00,53.5,52.1,30.02,ENE,70,0.0,0.0,95,0.00,,,0.00,0.00,VWS V14.01,2013-01-13 04:42:00,
2013-01-12 23:47:00,53.6,52.2,30.02,ENE,70,0.0,0.0,95,0.00,,,0.00,0.00,VWS V14.01,2013-01-13 04:47:00,
2013-01-12 23:52:00,53.8,52.4,30.02,ENE,70,0.0,0.0,95,0.00,,,0.00,0.00,VWS V14.01,2013-01-13 04:52:00,
2013-01-12 23:57:00,53.9,52.5,30.02,ENE,70,0.0,0.0,95,0.00,,,0.00,0.00,VWS V14.01,2013-01-13 04:57:00,